[[{"header":{"parameterUnit":"m.s-1","parameterCategory":1,"la1":30.2991,"la2":30.254,"lo1":-89.0895,"lo2":-89.0444,"dy":0.0017,"dx":0.0017,"nx":28,"ny":28,"refTime":"2023-08-17T21:00:00:Z","depth":0,"parameterNumber":2,"parameterNumberName":"U-component_of_WINDS"},"data":[0,0,0,0,0,0,0,0,0,0,0,0,0,0,0,0,0,0,0,0,0,0,0,0,0,0,0,0,0,0,0,0,0,0,0,0,0,0,0,0,0,0,0,0,0,0,0,0,0,0,0,0,0,0,0,0,0,0,-0.8292,-0.8292,0,-0.8308,-0.8308,-0.8308,-0.8276,-0.8274,-0.8273,-0.8272,-0.8286,-0.8288,-0.8289,0,0,0,0,0,0,0,0,0,0,0,0,0,-0.823,-0.8232,-0.8292,-0.8292,-0.8293,-0.8308,-0.8308,-0.8308,-0.8276,-0.8274,-0.8273,-0.8272,-0.8286,-0.8287,-0.8289,0,0,0,0,0,0,0,0,0,0,0,0,0,-0.8253,-0.8232,-0.8292,-0.8278,-0.8277,-0.8308,-0.8308,-0.8309,-0.8276,-0.8274,-0.8273,-0.8271,-0.8285,-0.8287,-0.8289,-0.8334,0,0,-0.8296,-0.8296,0,0,0,0,0,0,0,0,-0.8252,-0.8255,-0.828,-0.8279,-0.8278,-0.8288,-0.8292,-0.8317,-0.8276,-0.8276,-0.8272,-0.8271,-0.8288,-0.829,-0.8296,-0.8334,-0.8335,-0.8296,-0.8297,-0.8298,-0.8298,0,0,0,0,0,0,0,-0.825,-0.8254,-0.8298,-0.828,-0.8279,-0.827,-0.8272,-0.8296,-0.8291,-0.8276,-0.8274,-0.8276,-0.8287,-0.8294,-0.8296,-0.8335,-0.8296,-0.8297,-0.8299,-0.83,-0.8411,-0.8412,0,0,0,0,0,0,-0.8251,-0.8253,-0.8298,-0.8299,-0.8261,-0.8273,-0.8274,-0.8286,-0.8291,-0.829,-0.8278,-0.8275,-0.8292,-0.8294,-0.8297,-0.8349,-0.8298,-0.83,-0.8301,-0.8409,-0.8411,-0.8413,0,0,0,0,0,0,-0.8249,-0.8255,-0.8297,-0.8275,-0.828,-0.8275,-0.8289,-0.8288,-0.8295,-0.8292,-0.829,-0.8286,-0.829,-0.8294,-0.8325,-0.8349,-0.8301,-0.8302,-0.8407,-0.841,-0.8412,-0.8455,0,0,0,0,0,0,-0.8248,-0.8255,-0.8272,-0.8276,-0.8281,-0.8326,-0.8291,-0.8289,-0.8299,-0.8295,-0.8299,-0.8298,-0.8289,-0.8322,-0.8327,-0.8351,-0.8304,-0.8405,-0.8408,-0.8411,-0.8451,-0.8458,-0.8465,0,0,0,0,0,-0.8246,-0.8283,-0.8273,-0.8279,-0.8303,-0.8328,-0.8331,-0.832,-0.8301,-0.8318,-0.8316,-0.8298,-0.8346,-0.8326,-0.8331,-0.8356,-0.8403,-0.8407,-0.8411,-0.8448,-0.8457,-0.8464,0,0,0,0,0,0,-0.8281,-0.8283,-0.8273,-0.8312,-0.832,-0.8322,-0.8343,-0.833,-0.8343,-0.8339,-0.8325,-0.8326,-0.836,-0.8361,-0.8338,-0.8399,-0.8371,-0.8376,-0.8397,-0.8406,-0.8412,-0.8411,-0.8306,0,0,0,0,0,-0.8294,-0.8314,-0.8315,-0.835,-0.8354,-0.8348,-0.8358,-0.835,-0.8357,-0.836,-0.836,-0.8367,-0.8383,-0.8395,-0.8409,-0.8451,-0.8451,-0.8471,-0.8477,-0.8483,-0.8488,-0.8509,-0.8518,-0.8426,-0.8426,-0.8426,0,0,-0.832,-0.8324,-0.8337,-0.8357,-0.8362,-0.8383,-0.8351,-0.8374,-0.839,-0.8363,-0.8393,-0.8393,-0.84,-0.8437,-0.8453,-0.8439,-0.8513,-0.8488,-0.8492,-0.8494,-0.8514,-0.8523,-0.8531,-0.8428,-0.8428,-0.8427,0,0,-0.8378,-0.8383,-0.8413,-0.8419,-0.8427,-0.8423,-0.843,-0.8434,-0.8434,-0.8464,-0.8444,-0.8461,-0.849,-0.8496,-0.8502,-0.8563,-0.8547,-0.8568,-0.8603,-0.8625,-0.8632,-0.8638,-0.866,-0.8668,-0.8572,-0.8572,-0.8572,0,-0.8409,-0.844,-0.843,-0.8454,-0.8464,-0.8441,-0.8471,-0.8477,-0.849,-0.8496,-0.848,-0.8516,-0.8519,-0.8556,-0.8571,-0.8577,-0.8584,-0.8567,-0.8632,-0.8638,-0.8644,-0.8664,-0.8672,-0.8575,-0.8575,-0.8574,-0.8574,0,-0.8478,-0.85,-0.8523,-0.8537,-0.8548,-0.8575,-0.8568,-0.8581,-0.8571,-0.8568,-0.8599,-0.8602,-0.8617,-0.8625,-0.8615,-0.8661,-0.8652,-0.8634,-0.8606,-0.8655,-0.8674,-0.8682,-0.8578,-0.8578,-0.8577,-0.8576,0,0,-0.8559,-0.8567,-0.8575,-0.8581,-0.8589,-0.8605,-0.8631,-0.8647,-0.8658,-0.8667,-0.8688,-0.8713,-0.8697,-0.8704,-0.8695,-0.8714,-0.8762,-0.8694,-0.8694,-0.8706,-0.8812,-0.8826,-0.8835,-0.8751,-0.8753,-0.8754,-0.8812,0,-0.8617,-0.8662,-0.8653,-0.8698,-0.8717,-0.8697,-0.8719,-0.8726,-0.8724,-0.874,-0.8737,-0.8755,-0.8732,-0.8737,-0.8754,-0.8752,-0.8783,-0.8748,-0.877,-0.8771,-0.8769,-0.8845,-0.8859,-0.8914,-0.8819,-0.882,-0.8821,0,-0.869,-0.8703,-0.875,-0.8755,-0.8763,-0.8783,-0.8797,-0.8812,-0.8819,-0.8816,-0.8825,-0.8812,-0.8837,-0.8809,-0.8842,-0.8819,-0.8827,-0.8827,-0.8829,-0.8831,-0.8799,-0.8849,-0.8931,-0.8939,-0.8833,-0.8832,-0.8831,0,-0.8745,-0.8774,-0.8806,-0.8811,-0.8817,-0.8832,-0.8835,-0.8841,-0.8851,-0.8862,-0.8869,-0.8883,-0.889,-0.8901,-0.8892,-0.8872,-0.8927,-0.8898,-0.8925,-0.8926,-0.8938,-0.8937,-0.9023,-0.8943,-0.8943,-0.8943,-0.8943,0,-0.881,-0.8839,-0.883,-0.885,-0.8882,-0.8871,-0.8902,-0.8903,-0.8908,-0.8926,-0.8909,-0.8926,-0.8914,-0.893,-0.8923,-0.8952,-0.8955,-0.8953,-0.8951,-0.8955,-0.8955,-0.8961,-0.8957,-0.8945,-0.8945,-0.8944,-0.8944,0,-0.8876,-0.8871,-0.8905,-0.8908,-0.891,-0.8933,-0.8935,-0.8953,-0.895,-0.8974,-0.8979,-0.8973,-0.8992,-0.8984,-0.9003,-0.8998,-0.9036,-0.9028,-0.9034,-0.9032,-0.906,-0.9057,-0.9152,-0.9163,-0.9076,-0.9077,-0.9078,0,-0.8918,-0.8941,-0.8947,-0.8959,-0.8963,-0.8982,-0.8993,-0.8982,-0.8994,-0.9003,-0.902,-0.9037,-0.905,-0.908,-0.9078,-0.9092,-0.9085,-0.9117,-0.9087,-0.909,-0.9085,-0.9084,-0.9086,-0.9123,-0.9124,-0.9125,-0.9125,0,-0.8994,-0.899,-0.9007,-0.9022,-0.9035,-0.9047,-0.9057,-0.9067,-0.9057,-0.907,-0.909,-0.91,-0.912,-0.9137,-0.915,-0.9152,-0.9137,-0.9135,-0.9142,-0.9146,-0.9149,-0.9148,-0.905,-0.9133,-0.9132,-0.9132,-0.9131,-0.9131,-0.9049,-0.9068,-0.9075,-0.9094,-0.9101,-0.911,-0.9127,-0.9127,-0.9143,-0.9159,-0.9151,-0.9173,-0.9179,-0.9195,-0.92,-0.9216,-0.9203,-0.9214,-0.9216,-0.9219,-0.9223,-0.9146,-0.9218,-0.9218,-0.9218,-0.9218,-0.9218,0,-0.9123,-0.9127,-0.9145,-0.916,-0.9174,-0.916,-0.917,-0.9183,-0.9203,-0.921,-0.9224,-0.9245,-0.9262,-0.9261,-0.9276,-0.9289,-0.9283,-0.9294,-0.9293,-0.9293,-0.9233,-0.9226,-0.9299,-0.9299,-0.9299,-0.9299,-0.9299,-0.9299,-0.9164,-0.9195,-0.9193,-0.9227,-0.923,-0.9252,-0.9259,-0.9268,-0.9274,-0.9299,-0.9313,-0.9313,-0.9317,-0.9332,-0.9346,-0.9345,-0.9352,-0.9365,-0.9362,-0.9306,-0.9297,-0.929,-0.9283,-0.9366,-0.9366,-0.942,-0.9421,-0.9421]},{"header":{"parameterUnit":"m.s-1","parameterCategory":1,"la1":30.2991,"la2":30.254,"lo1":-89.0895,"lo2":-89.0444,"dy":0.0017,"dx":0.0017,"nx":28,"ny":28,"refTime":"2023-08-17T21:00:00:Z","depth":0,"parameterNumber":3,"parameterNumberName":"V-component_of_WINDS"},"data":[0,0,0,0,0,0,0,0,0,0,0,0,0,0,0,0,0,0,0,0,0,0,0,0,0,0,0,0,0,0,0,0,0,0,0,0,0,0,0,0,0,0,0,0,0,0,0,0,0,0,0,0,0,0,0,0,0,0,-0.0297,-0.0299,0,-0.0451,-0.0453,-0.0454,-0.051,-0.0509,-0.0509,-0.0508,-0.0663,-0.0667,-0.0672,0,0,0,0,0,0,0,0,0,0,0,0,0,-0.0048,-0.0052,-0.0297,-0.0299,-0.0301,-0.0451,-0.0453,-0.0455,-0.051,-0.0509,-0.0509,-0.0508,-0.0661,-0.0667,-0.0672,0,0,0,0,0,0,0,0,0,0,0,0,0,-0.0174,-0.0054,-0.0297,-0.0347,-0.0353,-0.045,-0.0453,-0.0455,-0.051,-0.0509,-0.0509,-0.0508,-0.066,-0.0666,-0.0673,-0.0732,0,0,-0.0694,-0.0697,0,0,0,0,0,0,0,0,-0.0167,-0.0184,-0.0337,-0.0343,-0.035,-0.0461,-0.0422,-0.0548,-0.051,-0.045,-0.0508,-0.0507,-0.0596,-0.0608,-0.0639,-0.0739,-0.0746,-0.0695,-0.0699,-0.0702,-0.0704,0,0,0,0,0,0,0,-0.0158,-0.0177,-0.0358,-0.034,-0.0347,-0.036,-0.0377,-0.0446,-0.0526,-0.0455,-0.046,-0.0477,-0.0599,-0.0632,-0.0643,-0.0748,-0.0695,-0.0701,-0.0705,-0.0708,-0.0904,-0.0905,0,0,0,0,0,0,-0.0142,-0.017,-0.0353,-0.0363,-0.0255,-0.0365,-0.0385,-0.0426,-0.0525,-0.0539,-0.0478,-0.0479,-0.062,-0.0635,-0.0648,-0.0724,-0.0702,-0.0708,-0.0712,-0.0903,-0.0904,-0.0905,0,0,0,0,0,0,-0.0136,-0.0158,-0.0347,-0.0267,-0.0292,-0.0371,-0.0417,-0.0429,-0.0462,-0.0542,-0.0556,-0.0497,-0.062,-0.0639,-0.0711,-0.073,-0.0712,-0.0718,-0.0901,-0.0903,-0.0904,-0.0875,0,0,0,0,0,0,-0.0129,-0.0155,-0.0179,-0.0268,-0.0297,-0.0408,-0.0418,-0.0433,-0.0474,-0.0478,-0.0564,-0.0577,-0.0621,-0.07,-0.0718,-0.0739,-0.0723,-0.09,-0.0902,-0.0904,-0.0875,-0.0876,-0.0876,0,0,0,0,0,-0.012,-0.0164,-0.018,-0.0202,-0.0328,-0.0409,-0.0425,-0.0476,-0.0475,-0.05,-0.0551,-0.0574,-0.0725,-0.0707,-0.0727,-0.0751,-0.0899,-0.0901,-0.0904,-0.0874,-0.0875,-0.0876,0,0,0,0,0,0,-0.0075,-0.0177,-0.0196,-0.027,-0.033,-0.0418,-0.045,-0.0475,-0.0537,-0.0537,-0.0596,-0.0615,-0.0683,-0.0724,-0.0703,-0.0813,-0.0813,-0.082,-0.0784,-0.0786,-0.0786,-0.0776,-0.0729,0,0,0,0,0,-0.0074,-0.0132,-0.0217,-0.0275,-0.0304,-0.0372,-0.0409,-0.0443,-0.0507,-0.0533,-0.0589,-0.065,-0.0711,-0.075,-0.0811,-0.088,-0.09,-0.0907,-0.0907,-0.0907,-0.0913,-0.0953,-0.0957,-0.0913,-0.0913,-0.0913,0,0,-0.0072,-0.0135,-0.0168,-0.0267,-0.0318,-0.0376,-0.0393,-0.0453,-0.0497,-0.0542,-0.0614,-0.0657,-0.0729,-0.08,-0.0834,-0.0836,-0.0929,-0.091,-0.091,-0.0916,-0.0956,-0.096,-0.0963,-0.0914,-0.0914,-0.0914,0,0,-0.01,-0.0152,-0.0207,-0.0257,-0.0334,-0.0379,-0.0391,-0.0475,-0.0506,-0.058,-0.0614,-0.0666,-0.077,-0.082,-0.0859,-0.0903,-0.0927,-0.0921,-0.0925,-0.0964,-0.0967,-0.0971,-0.0987,-0.0992,-0.0926,-0.0926,-0.0926,0,-0.0088,-0.0178,-0.0231,-0.029,-0.0333,-0.0376,-0.0431,-0.0477,-0.0569,-0.0597,-0.0598,-0.073,-0.0781,-0.0865,-0.0875,-0.0905,-0.0921,-0.0913,-0.0962,-0.0966,-0.097,-0.0987,-0.0993,-0.0925,-0.0925,-0.0925,-0.0925,0,-0.0159,-0.0221,-0.0255,-0.0344,-0.039,-0.0447,-0.0508,-0.0548,-0.0577,-0.0621,-0.0695,-0.0758,-0.0832,-0.0854,-0.0882,-0.0941,-0.094,-0.0951,-0.0953,-0.0973,-0.0989,-0.0996,-0.0923,-0.0923,-0.0924,-0.0924,0,0,-0.0164,-0.0282,-0.0294,-0.0335,-0.0422,-0.0471,-0.0528,-0.0602,-0.0635,-0.0696,-0.0746,-0.0833,-0.0843,-0.0887,-0.0922,-0.0955,-0.0987,-0.0962,-0.0965,-0.0965,-0.1056,-0.1049,-0.1055,-0.1003,-0.1004,-0.1005,-0.1051,0,-0.0204,-0.0311,-0.036,-0.0445,-0.0502,-0.0544,-0.0594,-0.0652,-0.0695,-0.0749,-0.0794,-0.0855,-0.0864,-0.0891,-0.0926,-0.0976,-0.1006,-0.0973,-0.105,-0.1052,-0.1032,-0.1064,-0.1056,-0.1096,-0.1057,-0.1058,-0.1059,0,-0.0265,-0.0328,-0.0418,-0.0499,-0.0525,-0.057,-0.0641,-0.0692,-0.0758,-0.0787,-0.0835,-0.0869,-0.093,-0.0926,-0.1011,-0.0987,-0.1021,-0.105,-0.1053,-0.1063,-0.1058,-0.1076,-0.111,-0.1117,-0.107,-0.1069,-0.1068,0,-0.0261,-0.0368,-0.0436,-0.047,-0.0565,-0.0596,-0.0636,-0.0702,-0.0743,-0.0805,-0.0832,-0.0899,-0.0936,-0.0987,-0.1036,-0.1029,-0.1117,-0.1117,-0.1142,-0.1141,-0.116,-0.1159,-0.1201,-0.1179,-0.1179,-0.1179,-0.1179,0,-0.0301,-0.0355,-0.0436,-0.0478,-0.0539,-0.0594,-0.0653,-0.0697,-0.0755,-0.0805,-0.0844,-0.089,-0.0953,-0.1007,-0.1046,-0.1111,-0.1127,-0.1151,-0.1161,-0.1149,-0.1146,-0.1173,-0.1172,-0.1181,-0.118,-0.118,-0.118,0,-0.0308,-0.0364,-0.0441,-0.0525,-0.0547,-0.0589,-0.0661,-0.0702,-0.0746,-0.0809,-0.0827,-0.0895,-0.0961,-0.1015,-0.11,-0.1127,-0.1194,-0.1205,-0.1172,-0.1178,-0.12,-0.1198,-0.1263,-0.1275,-0.1243,-0.1243,-0.1244,0,-0.0331,-0.0373,-0.0462,-0.0499,-0.054,-0.0599,-0.0641,-0.0696,-0.0738,-0.0817,-0.0849,-0.0917,-0.0975,-0.1077,-0.1134,-0.1199,-0.1213,-0.1231,-0.1223,-0.1209,-0.1215,-0.1212,-0.1217,-0.1232,-0.1232,-0.1232,-0.1232,0,-0.0365,-0.0391,-0.0451,-0.052,-0.057,-0.0627,-0.0685,-0.0712,-0.0778,-0.0822,-0.0891,-0.0935,-0.1023,-0.109,-0.1161,-0.1202,-0.1228,-0.1234,-0.1244,-0.1232,-0.1212,-0.1224,-0.1176,-0.1233,-0.1233,-0.1233,-0.1233,-0.1233,-0.0382,-0.0422,-0.0491,-0.0556,-0.0605,-0.0658,-0.0702,-0.0751,-0.0809,-0.0886,-0.0913,-0.0983,-0.1048,-0.1146,-0.1187,-0.1242,-0.1245,-0.1258,-0.1262,-0.1265,-0.1264,-0.1202,-0.1255,-0.1255,-0.1255,-0.1255,-0.1255,0,-0.0419,-0.0466,-0.0525,-0.0605,-0.0656,-0.0676,-0.0741,-0.0782,-0.0844,-0.0902,-0.0958,-0.1036,-0.1101,-0.1162,-0.123,-0.1262,-0.1275,-0.1278,-0.1277,-0.1286,-0.1257,-0.1242,-0.1266,-0.1266,-0.1266,-0.1266,-0.1266,-0.1266,-0.0445,-0.0514,-0.0548,-0.0641,-0.0687,-0.0756,-0.0792,-0.084,-0.0887,-0.0973,-0.1028,-0.1067,-0.1127,-0.1199,-0.1259,-0.1276,-0.1299,-0.1299,-0.1318,-0.129,-0.1288,-0.1286,-0.1273,-0.1303,-0.1303,-0.1343,-0.1344,-0.1344]}]]